This is the latest recevied weather packets stored in our database for station/object K0JRF-13. If no packets are shown the sender has not sent any weather packets the latest 10 day(s).
| Time | Temp. | Humidity | Pressure | Rain* | Wind** | Luminosity | Snow |
|---|---|---|---|---|---|---|---|
| 1787923194 | 20° C | 80% | 1020.3 hPa | 0 mm | - | - | - |
| 1787922594 | 18.89° C | 82% | 1020.3 hPa | 0 mm | - | - | - |
| 1787921994 | 20° C | 83% | 1020 hPa | 0 mm | - | - | - |
| 1787921394 | 18.89° C | 84% | 1020 hPa | 0 mm | - | - | - |
| 1787920794 | 18.33° C | 85% | 1020 hPa | 0 mm | - | - | - |
| 1787920193 | 18.33° C | 87% | 1020 hPa | 0 mm | - | - | - |
| 1787919594 | 18.33° C | 87% | 1019.6 hPa | 0 mm | - | - | - |
| 1787918994 | 18.33° C | 87% | 1020 hPa | 0 mm | - | - | - |
| 1787918394 | 17.78° C | 90% | 1019.6 hPa | 0 mm | - | - | - |
| 1787917794 | 17.78° C | 95% | 1019.6 hPa | 0 mm | - | - | - |
| 1787917194 | 17.22° C | 96% | 1019.3 hPa | 0 mm | - | - | - |
| 1787916594 | 16.67° C | 96% | 1019.3 hPa | 0 mm | - | - | - |
| 1787915994 | 16.67° C | 97% | 1019 hPa | 0 mm | - | - | - |
| 1787915394 | 16.67° C | 97% | 1019 hPa | 0 mm | - | - | - |
| 1787914794 | 16.67° C | 97% | 1018.6 hPa | 0 mm | - | - | - |
| 1787914194 | 17.22° C | 97% | 1018.6 hPa | 0 mm | - | - | - |
| 1787913594 | 17.22° C | 97% | 1018.6 hPa | 0 mm | - | - | - |
| 1787912994 | 17.22° C | 96% | 1018.3 hPa | 0 mm | - | - | - |
| 1787912394 | 17.78° C | 96% | 1018.3 hPa | 0 mm | - | - | - |
| 1787911794 | 17.78° C | 96% | 1017.9 hPa | 0 mm | - | - | - |
| 1787911194 | 17.22° C | 96% | 1017.6 hPa | 0 mm | - | - | - |
| 1787910594 | 17.22° C | 96% | 1017.9 hPa | 0 mm | - | - | - |
| 1787909994 | 17.22° C | 96% | 1017.9 hPa | 0 mm | - | - | - |
| 1787909394 | 17.22° C | 96% | 1017.6 hPa | 0 mm | - | - | - |
| 1787908794 | 17.78° C | 96% | 1017.6 hPa | 0 mm | - | - | - |
* Rain latest hour (hover to see other rain measurements)
** Current wind speed in m/s (hover to see current wind gust speed)